Time,TemperatureF,DewpointF,PressureIn,WindDirection,WindDirectionDegrees,WindSpeedMPH,WindSpeedGustMPH,Humidity,HourlyPrecipIn,Conditions,Clouds,dailyrainin,SoftwareType,DateUTC
2013-07-03 00:00:00,66.7,41.7,29.49,NNW,340,3.1,3.1,40,0.00,,---,0.00,VWS V14.01,2013-07-03 07:00:00,
2013-07-03 00:20:00,66.6,41.5,29.49,NNW,327,2.2,3.6,40,0.00,,---,0.00,VWS V14.01,2013-07-03 07:20:00,
2013-07-03 00:40:00,66.4,42.6,29.49,NNW,338,2.7,3.1,42,0.00,,---,0.00,VWS V14.01,2013-07-03 07:40:00,
2013-07-03 02:00:00,67.5,42.3,29.46,NW,315,0.0,4.0,40,0.00,,---,0.00,VWS V14.01,2013-07-03 09:00:00,
2013-07-03 02:20:00,67.3,42.2,29.46,North,353,0.0,4.0,40,0.00,,---,0.00,VWS V14.01,2013-07-03 09:20:00,
2013-07-03 03:00:00,67.5,42.3,29.46,North,5,3.1,4.9,40,0.00,,---,0.00,VWS V14.01,2013-07-03 10:00:00,
2013-07-03 03:20:00,66.9,41.8,29.43,North,2,0.0,3.6,40,0.00,,---,0.00,VWS V14.01,2013-07-03 10:20:00,
2013-07-03 03:40:00,67.3,42.2,29.46,NNE,19,2.2,4.0,40,0.00,,---,0.00,VWS V14.01,2013-07-03 10:40:00,
2013-07-03 04:00:00,66.9,41.8,29.46,North,1,4.0,4.0,40,0.00,,---,0.00,VWS V14.01,2013-07-03 11:00:00,
2013-07-03 04:40:00,67.5,42.3,29.43,North,3,0.0,3.6,40,0.00,,---,0.00,VWS V14.01,2013-07-03 11:40:00,
2013-07-03 05:00:00,68.2,43.0,29.43,North,11,0.0,3.6,40,0.00,,---,0.00,VWS V14.01,2013-07-03 12:00:00,
2013-07-03 05:20:00,66.6,41.5,29.43,NW,306,0.0,2.7,40,0.00,,---,0.00,VWS V14.01,2013-07-03 12:20:00,
2013-07-03 05:40:00,65.3,40.4,29.46,SW,222,0.0,0.0,40,0.00,,---,0.00,VWS V14.01,2013-07-03 12:40:00,
2013-07-03 06:00:00,65.7,40.7,29.46,NNW,344,2.7,2.7,40,0.00,,---,0.00,VWS V14.01,2013-07-03 13:00:00,
2013-07-03 06:20:00,67.5,42.3,29.43,North,6,0.0,3.6,40,0.00,,---,0.00,VWS V14.01,2013-07-03 13:20:00,
2013-07-03 06:40:00,68.0,42.8,29.46,North,0,0.0,4.0,40,0.00,,---,0.00,VWS V14.01,2013-07-03 13:40:00,
2013-07-03 07:00:00,68.4,43.1,29.46,NNW,345,0.0,2.7,40,0.00,,---,0.00,VWS V14.01,2013-07-03 14:00:00,
2013-07-03 07:20:00,70.9,44.7,29.46,NNE,31,2.2,3.6,39,0.00,,---,0.00,VWS V14.01,2013-07-03 14:20:00,
2013-07-03 07:40:00,72.7,46.3,29.46,North,353,0.0,3.6,39,0.00,,---,0.00,VWS V14.01,2013-07-03 14:40:00,
2013-07-03 08:00:00,75.4,48.0,29.46,NW,316,0.0,5.4,38,0.00,,---,0.00,VWS V14.01,2013-07-03 15:00:00,
2013-07-03 09:40:00,82.8,53.1,29.46,ENE,68,0.0,7.2,36,0.00,,---,0.00,VWS V14.01,2013-07-03 16:40:00,
2013-07-03 13:00:00,91.2,61.3,29.46,WSW,252,4.9,10.1,37,0.00,,---,0.00,VWS V14.01,2013-07-03 20:00:00,
2013-07-03 13:20:00,97.0,65.6,29.46,SSW,203,4.0,8.7,36,0.00,,---,0.00,VWS V14.01,2013-07-03 20:20:00,
2013-07-03 13:40:00,98.2,66.7,29.43,WSW,238,7.6,9.6,36,0.00,,---,0.00,VWS V14.01,2013-07-03 20:40:00,
2013-07-03 14:00:00,98.6,66.2,29.43,South,189,5.8,8.1,35,0.00,,---,0.00,VWS V14.01,2013-07-03 21:00:00,
2013-07-03 14:20:00,100.6,68.0,29.43,NE,43,5.4,9.6,35,0.00,,---,0.00,VWS V14.01,2013-07-03 21:20:00,
2013-07-03 14:40:00,97.9,66.4,29.43,SE,145,5.8,11.4,36,0.00,,---,0.00,VWS V14.01,2013-07-03 21:40:00,
2013-07-03 15:00:00,100.4,67.8,29.43,WSW,241,3.1,10.1,35,0.00,,---,0.00,VWS V14.01,2013-07-03 22:00:00,
2013-07-03 16:00:00,96.6,65.3,29.43,West,260,5.8,10.5,36,0.00,,---,0.00,VWS V14.01,2013-07-03 23:00:00,
2013-07-03 16:20:00,96.1,64.8,29.40,South,188,4.9,11.0,36,0.00,,---,0.00,VWS V14.01,2013-07-03 23:20:00,
2013-07-03 16:40:00,96.1,64.8,29.40,SSW,206,8.3,11.9,36,0.00,,---,0.00,VWS V14.01,2013-07-03 23:40:00,
2013-07-03 17:00:00,93.9,62.9,29.40,SSW,212,6.3,10.5,36,0.00,,---,0.00,VWS V14.01,2013-07-04 00:00:00,
2013-07-03 17:20:00,92.8,62.8,29.40,SSW,205,3.6,8.3,37,0.00,,---,0.00,VWS V14.01,2013-07-04 00:20:00,
2013-07-03 17:40:00,87.1,56.9,29.40,SSE,164,3.1,10.1,36,0.00,,---,0.00,VWS V14.01,2013-07-04 00:40:00,
2013-07-03 18:00:00,85.3,55.3,29.40,SW,223,3.1,9.6,36,0.00,,---,0.00,VWS V14.01,2013-07-04 01:00:00,
2013-07-03 18:40:00,82.6,53.0,29.40,North,357,2.2,8.3,36,0.00,,---,0.00,VWS V14.01,2013-07-04 01:40:00,
2013-07-03 19:00:00,80.6,52.0,29.40,NE,40,2.7,7.6,37,0.00,,---,0.00,VWS V14.01,2013-07-04 02:00:00,
2013-07-03 19:20:00,78.8,50.4,29.40,South,188,2.2,8.3,37,0.00,,---,0.00,VWS V14.01,2013-07-04 02:20:00,
2013-07-03 19:40:00,76.8,49.3,29.40,ENE,76,0.0,5.8,38,0.00,,---,0.00,VWS V14.01,2013-07-04 02:40:00,
2013-07-03 20:00:00,74.8,47.6,29.40,NW,321,0.0,5.4,38,0.00,,---,0.00,VWS V14.01,2013-07-04 03:00:00,
2013-07-03 20:20:00,72.9,46.5,29.40,North,7,0.0,4.0,39,0.00,,---,0.00,VWS V14.01,2013-07-04 03:20:00,
2013-07-03 21:00:00,71.1,44.9,29.40,North,7,0.0,4.0,39,0.00,,---,0.00,VWS V14.01,2013-07-04 04:00:00,
2013-07-03 21:20:00,69.4,44.1,29.40,North,8,2.7,4.9,40,0.00,,---,0.00,VWS V14.01,2013-07-04 04:20:00,
2013-07-03 21:40:00,68.5,43.3,29.40,NNW,341,3.1,4.0,40,0.00,,---,0.00,VWS V14.01,2013-07-04 04:40:00,
2013-07-03 22:00:00,68.0,42.8,29.40,NNE,25,2.7,3.6,40,0.00,,---,0.00,VWS V14.01,2013-07-04 05:00:00,
2013-07-03 22:20:00,68.4,43.1,29.40,NNE,16,2.7,3.6,40,0.00,,---,0.00,VWS V14.01,2013-07-04 05:20:00,
2013-07-03 22:40:00,67.5,42.3,29.40,North,6,0.0,3.6,40,0.00,,---,0.00,VWS V14.01,2013-07-04 05:40:00,
2013-07-03 23:00:00,68.7,43.5,29.40,West,266,3.1,5.8,40,0.00,,---,0.00,VWS V14.01,2013-07-04 06:00:00,
2013-07-03 23:20:00,68.7,43.5,29.40,NNW,335,2.7,4.0,40,0.00,,---,0.00,VWS V14.01,2013-07-04 06:20:00,
2013-07-03 23:40:00,67.3,42.2,29.40,NNW,348,0.0,3.6,40,0.00,,---,0.00,VWS V14.01,2013-07-04 06:40:00,